Terug naar catalogus

STARLINK-30478

ActiefCommunicatieVLEO
NORAD 57911·PAYLOAD·🇺🇸 United States

Gelanceerd Sep 20, 2023 vanaf Cape Canaveral Space Force Station

Loading…

Volgende Passages (komende 24 uur)

TLE

VersSource: CelesTrak SupGP

Epoch: Sep 14, 2026, 20:58 UTC

1 57911C 23146W   26257.87409722 -.00088432  00000+0 -32025-2 0  2577
2 57911  43.0018 325.5874 0001534 266.1449  28.9722 15.27626938    10

Volg STARLINK-30478 in realtime met AllMySat

Download on the App Store